Location: Alafon
(8.4500°N, 4.2333°E)
Time: 16:48:21
(UTC+00:00)

A-11 Canister half - Pass Details

Date: 11 August 2021
Orbit: 1515 x 1685 km, 47.2° (Epoch: 19 September)

Event Time Altitude Azimuth Distance (km) Brightness Sun altitude
Rises 21:26:21 0° 326° (NW) 4,910 12.3 -47.7°
Reaches altitude 10° 21:29:35 10° 330° (NNW) 3,932 11.6 -48.4°
Enters shadow 21:34:58 35° 344° (NNW) 2,466 10.1 -49.5°
Maximum altitude 21:39:33 61° 48° (NE) 1,868 - -50.4°
Drops below altitude 10° 21:49:28 10° 127° (SE) 3,915 - -52.4°
Sets 21:52:39 0° 130° (SE) 4,887 - -53.0°
